• En Colombia
  • Lista de países
  • Para 7 días
  • Temperatura del agua
  • El tiempo en el mapa
  • Informadores
  • user-avatar
    Iniciar sesión

    Tiempo cada hora Annaba

    Hoy, 30 Marzo, Lunes

    Tiempo Temperatura Precipitaciones Viento Presión Humedad
    00:00 +8°C° 0.2 mm 4 mps 759 mmHg 89%
    01:00 +8°C° 0 mm 4 mps 759 mmHg 90%
    02:00 +10°C° 0.5 mm 4 mps 759 mmHg 89%
    03:00 +9°C° 0.5 mm 5 mps 758 mmHg 89%
    04:00 +9°C° 0.5 mm 5 mps 758 mmHg 89%
    05:00 +10°C° 0.4 mm 4 mps 758 mmHg 89%
    06:00 +10°C° 0.4 mm 4 mps 758 mmHg 89%
    07:00 +10°C° 0 mm 4 mps 759 mmHg 89%
    08:00 +12°C° 0.2 mm 4 mps 759 mmHg 84%
    09:00 +13°C° 0.2 mm 4 mps 759 mmHg 79%
    10:00 +15°C° 0.2 mm 4 mps 759 mmHg 74%
    11:00 +17°C° 0.1 mm 4 mps 759 mmHg 70%
    12:00 +17°C° 0.1 mm 4 mps 759 mmHg 65%
    13:00 +18°C° 0 mm 4 mps 759 mmHg 58%
    14:00 +18°C° 0 mm 4 mps 758 mmHg 59%
    15:00 +18°C° 0 mm 4 mps 758 mmHg 60%
    16:00 +18°C° 0 mm 3 mps 758 mmHg 60%
    17:00 +16°C° 0 mm 3 mps 758 mmHg 68%
    18:00 +15°C° 0 mm 2 mps 758 mmHg 75%
    19:00 +13°C° 0 mm 1 mps 759 mmHg 83%
    20:00 +13°C° 0 mm 2 mps 759 mmHg 83%
    21:00 +13°C° 0 mm 2 mps 759 mmHg 83%
    22:00 +12°C° 0 mm 2 mps 760 mmHg 83%
    23:00 +12°C° 0 mm 2 mps 759 mmHg 82%

    Mañana, 31 Marzo, Martes

    Tiempo Temperatura Precipitaciones Viento Presión Humedad
    00:00 +12°C° 0 mm 2 mps 759 mmHg 81%
    01:00 +12°C° 0 mm 2 mps 759 mmHg 81%
    02:00 +11°C° 0 mm 3 mps 759 mmHg 80%
    03:00 +11°C° 0 mm 3 mps 759 mmHg 79%
    04:00 +11°C° 0 mm 3 mps 758 mmHg 78%
    05:00 +11°C° 0 mm 3 mps 758 mmHg 77%
    06:00 +11°C° 0 mm 3 mps 758 mmHg 77%
    07:00 +12°C° 0 mm 3 mps 758 mmHg 76%
    08:00 +15°C° 0 mm 2 mps 758 mmHg 71%
    09:00 +17°C° 0 mm 2 mps 758 mmHg 65%
    10:00 +19°C° 0 mm 2 mps 759 mmHg 60%
    11:00 +20°C° 0 mm 2 mps 759 mmHg 56%
    12:00 +21°C° 0 mm 2 mps 758 mmHg 53%
    13:00 +22°C° 0 mm 3 mps 758 mmHg 50%
    14:00 +23°C° 0 mm 2 mps 758 mmHg 55%
    15:00 +21°C° 0 mm 2 mps 758 mmHg 59%
    16:00 +20°C° 0 mm 2 mps 758 mmHg 64%
    17:00 +19°C° 0 mm 2 mps 758 mmHg 66%
    18:00 +18°C° 0 mm 2 mps 758 mmHg 67%
    19:00 +19°C° 0 mm 1 mps 758 mmHg 68%
    20:00 +17°C° 0 mm 2 mps 758 mmHg 70%
    21:00 +17°C° 0 mm 2 mps 758 mmHg 71%
    22:00 +16°C° 0 mm 2 mps 759 mmHg 73%
    23:00 +16°C° 0 mm 2 mps 758 mmHg 73%

    Pasado mañana, 1 Abril, Miércoles

    Tiempo Temperatura Precipitaciones Viento Presión Humedad
    00:00 +16°C° 0 mm 2 mps 758 mmHg 72%
    01:00 +15°C° 0 mm 2 mps 758 mmHg 72%
    02:00 +15°C° 0 mm 2 mps 758 mmHg 71%
    03:00 +15°C° 0 mm 2 mps 758 mmHg 71%
    04:00 +14°C° 0 mm 3 mps 757 mmHg 70%
    05:00 +14°C° 0 mm 3 mps 757 mmHg 70%
    06:00 +14°C° 0 mm 3 mps 758 mmHg 70%
    07:00 +14°C° 0 mm 4 mps 758 mmHg 70%
    08:00 +15°C° 0 mm 5 mps 758 mmHg 72%
    09:00 +16°C° 0 mm 5 mps 758 mmHg 73%
    10:00 +17°C° 0 mm 6 mps 758 mmHg 74%
    11:00 +19°C° 0 mm 6 mps 758 mmHg 72%
    12:00 +18°C° 0 mm 7 mps 758 mmHg 71%
    13:00 +20°C° 0 mm 7 mps 758 mmHg 69%
    14:00 +20°C° 0 mm 7 mps 757 mmHg 71%
    15:00 +18°C° 0 mm 7 mps 757 mmHg 74%
    16:00 +18°C° 0 mm 8 mps 756 mmHg 77%
    17:00 +16°C° 0.4 mm 7 mps 756 mmHg 81%
    18:00 +15°C° 0.4 mm 6 mps 756 mmHg 86%
    19:00 +14°C° 0.4 mm 6 mps 756 mmHg 91%
    20:00 +14°C° 0.3 mm 5 mps 757 mmHg 92%
    21:00 +14°C° 0.3 mm 4 mps 757 mmHg 92%
    22:00 +13°C° 0.3 mm 3 mps 758 mmHg 93%
    23:00 +13°C° 0.3 mm 3 mps 757 mmHg 93%

    2 Abril, Jueves

    Tiempo Temperatura Precipitaciones Viento Presión Humedad
    00:00 +14°C° 0.3 mm 2 mps 757 mmHg 94%
    01:00 +14°C° 0.3 mm 2 mps 757 mmHg 94%
    02:00 +13°C° 0.1 mm 2 mps 757 mmHg 94%
    03:00 +13°C° 0.1 mm 2 mps 757 mmHg 94%
    04:00 +13°C° 0.1 mm 2 mps 756 mmHg 94%
    05:00 +13°C° 0.1 mm 2 mps 756 mmHg 93%
    06:00 +13°C° 0.1 mm 1 mps 756 mmHg 93%
    07:00 +13°C° 0.1 mm 1 mps 756 mmHg 93%
    08:00 +14°C° 0.2 mm 1 mps 756 mmHg 90%
    09:00 +16°C° 0.2 mm 1 mps 756 mmHg 87%
    10:00 +18°C° 0.2 mm 1 mps 756 mmHg 84%
    11:00 +18°C° 0.1 mm 1 mps 756 mmHg 81%
    12:00 +19°C° 0.1 mm 1 mps 756 mmHg 79%
    13:00 +18°C° 0.1 mm 2 mps 755 mmHg 77%
    14:00 +18°C° 0.1 mm 2 mps 755 mmHg 77%
    15:00 +18°C° 0.1 mm 2 mps 755 mmHg 77%
    16:00 +18°C° 0.1 mm 2 mps 754 mmHg 77%
    17:00 +17°C° 0.1 mm 2 mps 754 mmHg 81%
    18:00 +16°C° 0.1 mm 1 mps 755 mmHg 85%
    19:00 +15°C° 0.1 mm 1 mps 755 mmHg 89%
    20:00 +14°C° 0 mm 1 mps 755 mmHg 90%
    21:00 +14°C° 0 mm 1 mps 756 mmHg 91%
    22:00 +14°C° 0 mm 2 mps 756 mmHg 91%
    23:00 +14°C° 0.1 mm 1 mps 756 mmHg 91%

    3 Abril, Viernes

    Tiempo Temperatura Precipitaciones Viento Presión Humedad
    00:00 +14°C° 0.1 mm 1 mps 756 mmHg 91%
    01:00 +14°C° 0.1 mm 1 mps 756 mmHg 91%
    02:00 +14°C° 0.2 mm 1 mps 755 mmHg 91%
    03:00 +13°C° 0.2 mm 2 mps 755 mmHg 91%
    04:00 +13°C° 0.2 mm 2 mps 754 mmHg 91%
    05:00 +13°C° 0.3 mm 2 mps 754 mmHg 91%
    06:00 +14°C° 0.3 mm 2 mps 755 mmHg 90%
    07:00 +14°C° 0.3 mm 2 mps 755 mmHg 89%
    08:00 +13°C° 1.5 mm 3 mps 755 mmHg 89%
    09:00 +13°C° 1.5 mm 3 mps 755 mmHg 90%
    10:00 +13°C° 1.5 mm 4 mps 755 mmHg 90%
    11:00 +13°C° 2.3 mm 3 mps 755 mmHg 87%
    12:00 +14°C° 2.3 mm 3 mps 755 mmHg 85%
    13:00 +15°C° 2.3 mm 2 mps 755 mmHg 82%
    14:00 +15°C° 0.5 mm 2 mps 755 mmHg 81%
    15:00 +16°C° 0.5 mm 2 mps 755 mmHg 80%
    16:00 +16°C° 0.5 mm 1 mps 754 mmHg 79%
    17:00 +15°C° 0.4 mm 2 mps 755 mmHg 82%
    18:00 +15°C° 0.4 mm 2 mps 756 mmHg 85%
    19:00 +14°C° 0.4 mm 2 mps 756 mmHg 88%
    20:00 +14°C° 0.2 mm 2 mps 757 mmHg 89%
    21:00 +14°C° 0.2 mm 2 mps 758 mmHg 89%
    22:00 +13°C° 0.2 mm 1 mps 758 mmHg 90%
    23:00 +13°C° 0.1 mm 1 mps 759 mmHg 90%

    4 Abril, Sábado

    Tiempo Temperatura Precipitaciones Viento Presión Humedad
    00:00 +13°C° 0.1 mm 1 mps 759 mmHg 90%
    01:00 +13°C° 0.1 mm 1 mps 759 mmHg 90%
    02:00 +12°C° 0.2 mm 2 mps 759 mmHg 91%
    03:00 +12°C° 0.2 mm 2 mps 759 mmHg 91%
    04:00 +12°C° 0.2 mm 2 mps 759 mmHg 92%
    05:00 +13°C° 0.2 mm 2 mps 760 mmHg 92%
    06:00 +13°C° 0.2 mm 2 mps 760 mmHg 92%
    07:00 +13°C° 0.2 mm 2 mps 760 mmHg 92%
    08:00 +14°C° 0.1 mm 2 mps 761 mmHg 89%
    09:00 +14°C° 0.1 mm 3 mps 761 mmHg 87%
    10:00 +14°C° 0.1 mm 3 mps 761 mmHg 85%
    11:00 +16°C° 0.1 mm 3 mps 761 mmHg 79%
    12:00 +17°C° 0.1 mm 3 mps 761 mmHg 74%
    13:00 +18°C° 0.1 mm 4 mps 761 mmHg 69%
    14:00 +18°C° 0 mm 4 mps 761 mmHg 68%
    15:00 +17°C° 0 mm 4 mps 761 mmHg 68%
    16:00 +16°C° 0 mm 5 mps 761 mmHg 68%
    17:00 +15°C° 0 mm 4 mps 761 mmHg 73%
    18:00 +14°C° 0 mm 4 mps 761 mmHg 78%
    19:00 +12°C° 0 mm 4 mps 761 mmHg 83%
    20:00 +12°C° 0 mm 4 mps 762 mmHg 84%
    21:00 +11°C° 0 mm 3 mps 762 mmHg 86%
    22:00 +11°C° 0 mm 3 mps 763 mmHg 87%
    23:00 +11°C° 0 mm 3 mps 763 mmHg 88%
    Mostrar más